www.pogodaiklimat.ru

Погода и климат >> Архив погоды >> Россия >> Якутия >> Кюсюр


ПОГОДА в Кюсюре

  • Прогноз погоды в Кюсюре
  • Монитор погоды в Кюсюре

АРХИВ ПОГОДЫ в Кюсюре

Время (UTC), дата Ветер
(напр.,м/с)
 
Видим.   Явления Облачность Т
(С)
Тd
(С)
f
(%)
Тe
(С)
Тes
(С)
Комфортность P
(гПа)
Po
(гПа)
Тmin
(С)
Tmax
(С)
R
(мм)
R24
(мм)
S
(см)
03 11.06 Ю 7-14
{14}
50 км 4/3 1000 м
[Sc Ac trans]
+24.2 +4.3 28 +24 +26 комфорт 998.1 994.4
06 11.06 Ю 8-13
{14}
50 км 6/3 1000 м
[Sc Ac trans]
+24.7 +5.2 28 +24 +25 комфорт 998.0 994.3
09 11.06 ЮЗ 5
{13}
50 км 6/3 1000 м
[Sc Ac trans]
+23.4 +4.8 30 +23 +24 комфорт 998.3 994.6
12 11.06 Ю 3 50 км 6/6 1000 м
[Sc]
+19.8 +4.5 36 +21 +21 комфорт 998.9 995.1 +26.7
15 11.06 Ю 2 50 км 10/10 600 м
[Sc]
+17.1 +5.8 47 +17 +17 1000.0 996.2
18 11.06 ЮВ 1 50 км 6/6 1000 м
[Sc]
+14.0 +7.0 63 +14 +15 1000.1 996.3
21 11.06 ЮВ 1 50 км 4/4 1000 м
[Sc]
+17.7 +7.7 52 +19 +21 1000.4 996.6
00 12.06 Ю 7-12
{12}
50 км 3/3 1000 м
[Sc]
+23.1 +5.5 32 +23 +25 комфорт 998.4 994.7 +13.5
03 12.06 Ю 5
{12}
50 км 8/8 1000 м
[Sc Ci fib]
+26.0 +4.1 24 +25 +26 комфорт 996.3 992.6
06 12.06 Ю 4 50 км 9/4 1000 м
[Sc Ci fib]
+25.0 +6.6 31 +25 +28 комфорт 995.1 991.4
09 12.06 ЮЗ 3 50 км 10/1 1000 м
[Sc Ac und]
+24.9 +8.4 35 +25 +26 комфорт 995.4 991.7
12 12.06 штиль 0 50 км 10/8 1000 м
[Sc Ac und]
+22.0 +9.9 46 +24 +24 комфорт 996.3 992.6 +27.5
15 12.06 штиль 0 50 км 8/8 1000 м
[Sc]
+19.8 +9.9 53 +21 +21 комфорт 996.4 992.7
18 12.06 штиль 0 50 км 4/4 1000 м
[Sc]
+14.0 +8.7 70 +14 +14 996.8 993.0
21 12.06 З 1 50 км 6/0
[Ac trans]
+15.2 +10.1 72 +16 +18 999.8 996.0
00 13.06 ЮЗ 6-10
{14}
50 км 10/10 1000 м
[Sc]
+10.0 +4.7 70 +7 +7 1005.3 1001.4 +10.0
03 13.06 ЮЗ 5
{10}
50 км 10/10 1000 м
[Sc]
+9.7 +4.3 69 +7 +7 1008.3 1004.4 +8.8
06 13.06 З 4 50 км 10/10 1000 м
[Sc]
+8.2 +3.0 70 +5 +5 1011.3 1007.4
09 13.06 СЗ 3 50 км 10/10 1000 м
[Sc]
+7.6 +2.3 69 +5 +5 1013.3 1009.4
12 13.06 СЗ 2 50 км 10/10 1000 м
[Sc]
+7.0 +1.6 68 +5 +5 1014.5 1010.6 +10.0
15 13.06 СЗ 2 50 км {дождь} 10/10 1000 м
[Sc]
+6.4 +3.1 79 +4 +4 1015.2 1011.2
18 13.06 С 3 50 км {дождь} 10/6 1000 м
[Sc Ac und]
+6.4 +2.5 76 +3 +3 1015.3 1011.3
21 13.06 СВ 2 50 км 10/5 1000 м
[Sc Ac und]
+6.0 +1.8 74 +4 +4 1015.6 1011.6
00 14.06 Ю 2 50 км 10/4 1000 м
[Sc Ac und]
+7.1 +3.6 78 +5 +6 1015.5 1011.6 +6.0 0.0
03 14.06 З 4 50 км 10/5 1000 м
[Sc Ac und]
+7.5 +4.0 78 +4 +5 1015.4 1011.5
06 14.06 Ю 6 50 км 9/5 1000 м
[Sc Ci fib]
+9.2 +3.2 66 +6 +7 1014.4 1010.5
09 14.06 ЮЗ 3 50 км 9/4 1000 м
[Sc Ci fib]
+9.8 +3.4 64 +8 +9 1013.1 1009.2
12 14.06 Ю 4 50 км 4/4 1000 м
[Sc]
+12.0 +2.6 53 +10 +11 1012.1 1008.2 +12.5
15 14.06 Ю 3 50 км ясно +10.0 +1.0 54 +8 +8 1011.7 1007.8
18 14.06 Ю 2 50 км ясно +9.1 +1.0 57 +8 +8 1011.5 1007.6
21 14.06 Ю 2 50 км ясно +12.3 +3.6 55 +12 +14 1011.0 1007.1
00 15.06 Ю 6 50 км ясно +17.5 +0.3 31 +17 +20 1010.1 1006.3 +8.5
03 15.06 Ю 5 50 км ясно +20.2 +3.4 33 +21 +26 комфорт 1007.9 1004.1
06 15.06 Ю 6 50 км ясно +21.5 +2.7 29 +21 +25 комфорт 1006.6 1002.8
09 15.06 Ю 5 50 км 4/0
[Ac trans Ci fib]
+21.5 +2.7 29 +21 +23 комфорт 1006.0 1002.2
12 15.06 Ю 4 50 км 3/0
[Ac trans]
+21.6 +4.5 33 +22 +22 комфорт 1006.5 1002.7 +22.8
15 15.06 штиль 0 50 км 1/0
[Ac trans]
+16.2 +8.4 60 +16 +16 1007.0 1003.2
18 15.06 штиль 0 50 км 3/0
[Ac trans]
+15.6 +4.0 46 +16 +16 1007.6 1003.8
21 15.06 штиль 0 50 км 3/0
[Ac trans]
+17.6 +4.9 43 +18 +20 1007.7 1003.9
00 16.06 Ю 6 50 км 1/0
[Ac trans]
+23.2 +4.7 30 +23 +26 комфорт 1007.0 1003.3 +14.5
03 16.06 Ю 7-10
{14}
50 км 3/3 1000 м
[Sc Ci fib]
+25.2 +6.6 30 +25 +27 комфорт 1007.3 1003.6
06 16.06 ЮЗ 6-10
{11}
50 км 4/3 1000 м
[Sc Ac trans]
+26.0 +6.6 29 +26 +28 жарко 1007.6 1003.9
09 16.06 С 3
{14}
50 км 9/9 1000 м
[Sc]
+16.2 +8.4 60 +16 +16 1011.9 1008.0
12 16.06 С 2 10 км слаб. дождь 10/10 1000 м
[Sc]
+12.0 +10.1 88 +11 +11 1014.0 1010.1 +26.8 2
15 16.06 С 6 4000 м дождь 10/10 300 м
[Sc]
+10.2 +8.6 90 +7 +7 1015.8 1011.9
18 16.06 СВ 3 50 км {дождь} 4/4 1000 м
[Sc]
+9.4 +6.6 83 +7 +7 1018.0 1014.1
21 16.06 СВ 5 50 км 3/3 1000 м
[Sc]
+10.4 +5.1 70 +8 +8 1020.0 1016.0
00 17.06 С 5 50 км 3/0
[Ci fib]
+11.8 +0.8 47 +10 +13 1020.8 1016.8 +9.4 8
03 17.06 С 6 50 км 3/0
[Ci fib]
+14.4 +4.5 51 +13 +17 1020.1 1016.2
06 17.06 С 5 50 км ясно +16.0 +2.2 39 +15 +20 1019.0 1015.1
09 17.06 СВ 5 50 км 3/0
[Ci fib]
+17.2 -1.7 28 +17 +19 1018.1 1014.2
12 17.06 СВ 4 50 км ясно +12.6 +2.9 52 +11 +12 1018.5 1014.6 +17.9
15 17.06 СВ 4 50 км 3/3 1000 м
[Sc]
+9.4 +2.3 61 +7 +7 1017.5 1013.6
18 17.06 СВ 4 50 км 3/3 1000 м
[Sc]
+8.3 +1.8 64 +5 +6 1017.0 1013.1
21 17.06 СВ 4 50 км 4/4 1000 м
[Sc]
+10.9 +2.8 57 +9 +10 1015.5 1011.6
00 18.06 С 5 50 км 3/3 1000 м
[Sc]
+14.5 +5.7 55 +13 +16 1014.1 1010.2 +8.4

 

Местоположение метеостанции Кюсюр (Якутия, Россия): широта 70.68 долгота 127.40 высота над уровнем моря 33 м.

В архиве по умолчанию представлена погода в Кюсюре за последнюю неделю. Архивные данные за месяц целиком и за предыдущие месяцы, начиная с января 2011 года, Вы можете получить, выбрав интересующий диапазон дат из раскрывающегося списка и нажав кнопку "Ввод!".


*Определитесь, кто Вы:
робот инопланетянин человек

Внимание! Время в таблицах - всемирное. Для получения местного времени необходимо прибавить поправку, которая равна 9 ч.

Смотрите также архив погоды в соседних городах и на ближайших метеорологических станциях:

Погода в Тикси (Якутия, Россия) (114 км)
Погода на Мысе Быков (Якутия, Россия) (159 км)
Погода на Столб Острове (Якутия, Россия) (195 км)
Погода в Тюмяти (Якутия, Россия) (196 км)
Погода в Джарджане (Якутия, Россия) (253 км)
Погода в Усть-Куйге (Якутия, Россия) (316 км)
Погода в Юбилейной (Якутия, Россия) (323 км)
Погода в Батагай-Алыте (Якутия, Россия) (343 км)
Погода на Усть-Оленеке (Якутия, Россия) (368 км)
Погода в Сухане (Якутия, Россия) (419 км)

Пояснения к столбцам:

Ветер - указаны скорость ветра в м/с - средняя за 10 мин, порывы в срок и между сроками (в фигурных скобках) и направление, откуда дует ветер: С - северный, СВ - северо-восточный, В - восточный, ЮВ - юго-восточный, Ю - южный, ЮЗ - юго-западный, З - западный, СЗ - северо-западный.
Видимость - горизонтальная дальность видимости в метрах или километрах. При видимости от 1 до 10 км при отсутствии осадков обычно наблюдается дымка, при ухудшении видимости до 1 км и менее - туман. В сухую погоду видимость может ухудшаться дымом, пылью или мглою.
Явления - указаны атмосферные явления, наблюдавшиеся в срок или в последний час перед сроком; фигурными скобками обозначены явления, наблюдавшиеся между сроками (за 1-3 часа до срока); квадратными скобками обозначены град или гололедные отложения с указанием их диаметра в мм.
Облачность - указаны через наклонную черту общая и нижняя облачность в баллах и высота нижней границы облаков в метрах; квадратными скобками обозначены формы облаков: Ci - перистые, Cs - перисто-слоистые, Cc - перисто-кучевые, Ac - высококучевые, As - высокослоистые, Sc - слоисто-кучевые, Ns - слоисто-дождевые, Cu - кучевые, Cb - кучево-дождевые. Подробнее классификацию облаков см. в Атласе облаков (PDF).
T - Температура воздуха - температура, измеренная на высоте 2 м над землей.
Td - Температура точки росы - температура, при понижении до которой содержащийся в воздухе водяной пар достигнет насыщения.
f - Относительная влажность воздуха - влажноcть воздуха, измеренная на высоте 2 м над землей.
Te - Эффективная температура - температура, которую ощущает одетый по сезону человек в тени. Характеристика душности погоды. При расчете учитывается влияние влажности воздуха и скорости ветра на теплоощущения человека.
Tes - Эффективная температура на солнце - температура, которую ощущает человек, с поправкой на солнечный нагрев. Характеристика знойности погоды. Зависит от высоты солнца над горизонтом, облачности и скорости ветра. Ночью, в пасмурную погоду, а также при ветре 12 м/с и более поправка равна нулю.
P - Атмосферное давление - приведенное к уровню моря атмосферное давление.
Po - Атмосферное давление - измеренное на уровне метеостанции атмосферное давление.
Tmin - Минимальная температура - минимум температуры воздуха на высоте 2 м над землей.
Tmax - Максимальная температура - максимум температуры воздуха на высоте 2 м над землей.
R - Количество осадков - Количество выпавших осадков за период времени, мм. При наведении курсора мыши на число - период времени, за который выпало указанное количество осадков.
R24 - Количество осадков - Количество выпавших осадков за 24 часа, мм.
S - Снежный покров - Высота снежного покрова, см. При наведении курсора мыши на число - состояние снежного покрова и степень покрытия местности в баллах.